This demonstration page uses our WeatherBlox Daily Observations layout. Learn more.

Left ArrowRight Arrow

Hourly Observations for April 10, 2018

Temp ( °F °C ) Dew Point ( °F °C ) Humidity (%) Winds ( mph kmh ) Pressure ( in mb ) Visibility ( mi km ) Precip ( " mm )
12:53 am 00:53 Mostly Clear 36 2.2 28 -2.2 73 73 NE 8 13 30.37 1028 10 16 0.00 0.00
1:53 am 01:53 Clear 36 2.2 28 -2.2 73 73 NNE 8 13 30.37 1028 10 16 0.00 0.00
2:53 am 02:53 Clear 33 0.6 27 -2.8 78 78 E 6 9 30.37 1028 10 16 0.00 0.00
3:53 am 03:53 Clear 32 0 28 -2.2 85 85 Calm 30.36 1028 10 16 0.00 0.00
4:53 am 04:53 Clear 27 -2.8 25 -3.9 92 92 Calm 30.36 1028 10 16 0.00 0.00
5:53 am 05:53 Clear 28 -2.2 27 -2.8 96 96 WSW 3 6 30.37 1028 10 16 0.00 0.00
6:53 am 06:53 Mostly Clear 28 -2.2 27 -2.8 96 96 Calm 30.37 1028 10 16 0.00 0.00
7:53 am 07:53 Partly Cloudy with Mist and Fog 30 -1.1 28 -2.2 92 92 Calm 30.39 1029 6 10 0.00 0.00
8:53 am 08:53 Partly Cloudy with Mist and Fog 37 2.8 33 0.6 86 86 S 8 13 30.39 1029 6 10 0.00 0.00
9:53 am 09:53 Hazy 43 6.1 34 1.1 71 71 S 12 19 30.37 1029 6 10 0.00 0.00
10:53 am 10:53 Hazy 48 8.9 36 2.2 63 63 S 13 20 30.35 1028 6 10 0.00 0.00
11:53 am 11:53 Hazy 53 11.7 38 3.3 57 57 S 15 24 30.32 1027 6 10 0.00 0.00
12:53 pm 12:53 Partly Cloudy 60 15.6 39 3.9 46 46 SW 17 28 30.28 1026 7 11 0.00 0.00
1:53 pm 13:53 Partly Cloudy 63 17.2 37 2.8 38 38 SSW 16 26 30.22 1024 9 14 0.00 0.00
2:53 pm 14:53 Partly Cloudy 66 18.9 36 2.2 33 33 S 26 43 30.19 1022 10 16 0.00 0.00
3:53 pm 15:53 Partly Cloudy 68 20 35 1.7 30 30 SSW 20 31 30.15 1021 10 16 0.00 0.00
4:53 pm 16:53 Mostly Sunny 70 21.1 34 1.1 27 27 S 24 39 30.11 1020 10 16 0.00 0.00
5:53 pm 17:53 Mostly Cloudy 70 21.1 33 0.6 26 26 S 24 39 30.06 1018 10 16 0.00 0.00
6:53 pm 18:53 Partly Cloudy 68 20 33 0.6 27 27 S 24 39 30.03 1017 10 16 0.00 0.00
7:53 pm 19:53 Partly Cloudy 64 17.8 33 0.6 32 32 S 20 31 30.03 1017 10 16 0.00 0.00
8:53 pm 20:53 Mostly Clear 61 16.1 32 0 34 34 S 17 28 30.03 1017 10 16 0.00 0.00
9:53 pm 21:53 Mostly Clear 59 15 34 1.1 39 39 S 18 30 30.04 1017 10 16 0.00 0.00

Powered by Vaisala Xweather